Weather observations for the past three days for
Conway Horry County Airport
Imperial (Metric)
Date Time (edt) Wind (mph) Vis. (mi.) Weather Sky Cond. Temperature (ºF) Relative Humidity Wind Chill (°F) Heat Index (°F) Pressure Precipitation (in)
Air Dwpt 6 hour altimeter (in) sea level (mb) 1 hr 3 hr 6 hr
Max. Min.
10 08:15 W 3 10.00 Fair CLR 66.2 64.4 94% 29.99 0.0
10 07:55 W 5 10.00 Fair CLR 64.4 64.4 100% 29.99 0.0
10 07:35 Calm 10.00 Fair CLR 64.4 62.6 94% 29.99 0.0
10 07:15 Calm 10.00 Fair CLR 62.6 62.6 100% 29.98 0.0
10 06:55 Calm 10.00 Fair CLR 62.6 62.6 100% 29.97 0.0
10 06:35 Calm 10.00 Fair CLR 62.6 62.6 100% 29.96 0.0
10 06:15 Calm 10.00 Fair CLR 62.6 62.6 100% 29.96 0.0
10 05:55 S 3 10.00 Fair CLR 62.6 62.6 100% 29.95 0.0
10 05:35 Calm 10.00 Fair CLR 62.6 62.6 100% 29.94 0.0
10 05:15 Calm 10.00 Fair CLR 62.6 62.6 100% 29.94 0.0
10 04:55 Calm 10.00 Fair CLR 64.4 62.6 94% 29.94 0.0
10 04:35 Calm 10.00 Fair CLR 64.4 62.6 94% 29.93 0.0
10 04:15 Calm 10.00 Fair CLR 64.4 62.6 94% 29.93 0.0
10 03:55 Calm 10.00 Fair CLR 64.4 62.6 94% 29.93 0.0
10 03:35 Calm 10.00 Fair CLR 64.4 64.4 100% 29.94 0.0
10 03:15 Calm 10.00 Fair CLR 64.4 62.6 94% 29.93 0.0
10 02:55 Calm 10.00 Fair CLR 62.6 62.6 100% 29.92 0.0
10 02:35 Calm 10.00 Fair CLR 62.6 62.6 100% 29.92 0.0
10 02:15 Calm 10.00 Fair CLR 62.6 62.6 100% 29.92 0.0
10 01:55 Calm 10.00 Fair CLR 62.6 62.6 100% 29.92 0.0
10 01:35 Calm 10.00 Fair CLR 60.8 60.8 100% 29.92 0.0
10 01:15 Calm 10.00 Fair CLR 60.8 60.8 100% 29.92 0.0
10 00:55 Calm 10.00 Fair CLR 62.6 62.6 100% 29.92 0.0
10 00:35 Calm 10.00 Fair CLR 62.6 62.6 100% 29.92 0.0
10 00:15 Calm 10.00 Fair CLR 62.6 62.6 100% 29.92 0.0
09 23:55 Calm 10.00 Fair CLR 62.6 62.6 100% 29.92 0.0
09 23:15 Calm 10.00 Partly Cloudy SCT120 64.4 64.4 100% 29.92 0.0
09 22:55 Calm 10.00 Mostly Cloudy BKN120 64.4 62.6 94% 29.92 0.0
09 22:35 Calm 10.00 Mostly Cloudy BKN120 64.4 62.6 94% 29.92 0.0
09 22:15 Calm 10.00 Fair CLR 64.4 62.6 94% 29.92 0.0
09 21:55 Calm 10.00 Fair CLR 66.2 64.4 94% 29.91 0.0
09 21:35 Calm 10.00 Fair CLR 66.2 62.6 88% 29.9 0.0
09 21:15 Calm 10.00 Fair CLR 68 62.6 83% 29.89 0.0
09 20:55 Calm 10.00 Fair CLR 69.8 62.6 78% 29.88 0.0
09 20:35 Calm 10.00 Fair CLR 69.8 62.6 78% 29.88 0.0
09 20:15 SW 3 10.00 Fair CLR 71.6 62.6 73% 29.87 0.0
09 19:55 SW 3 10.00 Fair CLR 71.6 62.6 73% 29.88 0.0
09 19:35 SW 5 10.00 Fair CLR 73.4 62.6 69% 29.87 0.0
09 19:15 SW 6 10.00 Fair CLR 73.4 62.6 69% 29.86 0.0
09 18:55 SW 3 10.00 Fair CLR 73.4 64.4 74% 29.86 0.0
09 18:35 SW 6 10.00 Fair CLR 73.4 64.4 74% 29.86 0.0
09 18:15 SW 8 10.00 Fair CLR 73.4 62.6 69% 29.86 0.0
09 17:55 SW 7 10.00 Fair CLR 75.2 62.6 65% 77 29.86 0.0
09 17:35 SW 7 10.00 Fair CLR 75.2 62.6 65% 77 29.85 0.0
09 17:15 SW 10 10.00 Fair CLR 77 62.6 61% 79 29.85 0.0
09 16:55 SW 6 10.00 Fair CLR 77 62.6 61% 79 29.85 0.0
09 16:35 SW 8 10.00 Fair CLR 77 62.6 61% 79 29.85 0.0
09 16:15 SW 9 10.00 Fair CLR 77 62.6 61% 79 29.86 0.0
09 15:55 SW 12 10.00 Fair CLR 77 62.6 61% 79 29.86 0.0
09 15:35 SW 7 G 16 10.00 Fair CLR 77 62.6 61% 79 29.86 0.0
09 15:15 SW 8 G 16 10.00 Fair CLR 77 62.6 61% 79 29.88 0.0
09 14:55 SW 8 10.00 Fair CLR 77 62.6 61% 79 29.87 0.0
09 14:35 S 10 G 16 10.00 Fair CLR 77 62.6 61% 79 29.87 0.0
09 14:15 SW 10 10.00 Fair CLR 77 62.6 61% 79 29.87 0.0
09 13:55 S 9 10.00 Fair CLR 77 64.4 65% 79 29.88 0.0
09 13:35 S 8 10.00 Partly Cloudy SCT030 SCT041 SCT048 77 66.2 69% 79 29.88 0.0
09 13:15 S 8 10.00 Partly Cloudy SCT028 SCT038 SCT048 77 64.4 65% 79 29.89 0.0
09 12:55 SW 8 10.00 Partly Cloudy SCT029 SCT035 SCT070 77 64.4 65% 79 29.89 0.0
09 12:35 S 8 10.00 Partly Cloudy SCT070 75.2 64.4 69% 77 29.9 0.0
09 12:15 SW 5 10.00 Partly Cloudy SCT025 SCT070 75.2 64.4 69% 77 29.91 0.0
09 11:55 S 8 10.00 Partly Cloudy SCT023 SCT037 SCT049 75.2 64.4 69% 77 29.91 0.0
09 11:35 SW 8 10.00 Partly Cloudy SCT037 SCT049 SCT085 73.4 64.4 74% 29.92 0.0
09 11:15 SW 6 10.00 Fair CLR 73.4 64.4 74% 29.93 0.0
09 10:55 S 3 10.00 Partly Cloudy SCT019 71.6 64.4 78% 29.94 0.0
09 10:35 S 6 10.00 Fair CLR 71.6 64.4 78% 29.94 0.0
09 10:15 SE 3 10.00 Fair CLR 69.8 64.4 83% 29.94 0.0
09 09:55 SE 3 10.00 Fair CLR 68 64.4 88% 29.93 0.0
09 09:35 Calm 10.00 Fair CLR 66.2 64.4 94% 29.95 0.0
09 09:15 Calm 7.00 Light Rain CLR 64.4 62.6 94% 29.94 0.0
09 08:55 Calm 10.00 Fair CLR 64.4 62.6 94% 29.94 0.0
09 08:35 Calm 10.00 Fair CLR 62.6 60.8 94% 29.95 0.0
09 08:10 Calm 10.00 Fair CLR 62.6 60.8 94% 29.94 0.0
09 07:55 Calm 10.00 Fair CLR 60.8 60.8 100% 29.94 0.0
09 07:35 Calm 10.00 Fair CLR 60.8 59 94% 29.94 0.0
09 07:15 Calm 10.00 Fair CLR 59 59 100% 29.93 0.0
09 06:55 Calm 10.00 Fair CLR 59 57.2 94% 29.92 0.0
09 06:35 Calm 10.00 Fair CLR 57.2 57.2 100% 29.92 0.0
09 06:15 Calm 10.00 Fair CLR 57.2 55.4 94% 29.92 0.0
09 05:55 Calm 10.00 Fair CLR 57.2 55.4 94% 29.92 0.0
09 05:35 Calm 10.00 Fair CLR 55.4 55.4 100% 29.92 0.0
09 05:15 Calm 10.00 Partly Cloudy SCT120 57.2 57.2 100% 29.92 0.0
09 04:55 Calm 10.00 Partly Cloudy SCT120 57.2 57.2 100% 29.93 0.0
09 04:35 Calm 10.00 Fair CLR 57.2 57.2 100% 29.93 0.0
09 03:55 N 5 10.00 Partly Cloudy SCT120 57.2 57.2 100% 29.93 0.0
09 03:35 Calm 10.00 Fair CLR 57.2 55.4 94% 29.94 0.0
09 03:15 Calm 10.00 Partly Cloudy SCT120 55.4 55.4 100% 29.95 0.0
09 02:55 Calm 10.00 Partly Cloudy SCT120 55.4 55.4 100% 29.95 0.0
09 02:35 Calm 10.00 Fair CLR 55.4 55.4 100% 29.96 0.0
09 02:15 Calm 10.00 Fair CLR 55.4 55.4 100% 29.97 0.0
09 01:55 Calm 10.00 Fair CLR 55.4 55.4 100% 29.99 0.0
09 01:35 Calm 10.00 Fair CLR 55.4 55.4 100% 30 0.0
09 01:15 Calm 10.00 Fair CLR 55.4 55.4 100% 30 0.0
09 00:55 Calm 10.00 Fair CLR 55.4 55.4 100% 30.01 0.0
09 00:35 Calm 10.00 Fair CLR 57.2 55.4 94% 30.01 0.0
09 00:15 Calm 10.00 Fair CLR 57.2 55.4 94% 30.01 0.0
08 23:55 Calm 10.00 Fair CLR 57.2 55.4 94% 30 0.0
08 23:35 Calm 10.00 Fair CLR 57.2 55.4 94% 30.01 0.0
08 23:15 Calm 10.00 Fair CLR 59 55.4 88% 30.01 0.0
08 22:55 Calm 10.00 Fair CLR 59 55.4 88% 30.02 0.0
08 22:35 Calm 10.00 Fair CLR 59 55.4 88% 30.02 0.0
08 22:15 Calm 10.00 Fair CLR 57.2 55.4 94% 30.02 0.0
08 21:55 Calm 10.00 Fair CLR 59 55.4 88% 30.02 0.0
08 21:35 Calm 10.00 Fair CLR 59 57.2 94% 30.01 0.0
08 21:15 Calm 10.00 Fair CLR 59 55.4 88% 30.01 0.0
08 20:35 Calm 10.00 Fair CLR 60.8 55.4 83% 30 0.0
08 20:15 Calm 10.00 Fair CLR 60.8 55.4 83% 29.99 0.0
08 19:55 Calm 10.00 Fair CLR 62.6 53.6 73% 29.99 0.0
08 19:35 Calm 10.00 Fair CLR 62.6 53.6 73% 30 0.0
08 19:15 SE 3 10.00 Fair CLR 62.6 53.6 73% 29.99 0.0
08 18:55 SE 3 10.00 Fair CLR 64.4 53.6 68% 29.99 0.0
08 18:15 S 8 10.00 Fair CLR 66.2 53.6 64% 29.99 0.0
08 17:55 SE 8 10.00 Fair CLR 68 53.6 60% 29.98 0.0
08 17:35 SE 7 10.00 Partly Cloudy SCT044 68 53.6 60% 29.98 0.0
08 17:15 E 6 10.00 Partly Cloudy SCT044 69.8 53.6 57% 29.97 0.0
08 16:55 Calm 10.00 Fair CLR 71.6 44.6 38% 29.98 0.0
08 16:35 Calm 10.00 Fair CLR 69.8 44.6 40% 29.98 0.0
08 16:15 Calm 10.00 Fair CLR 69.8 46.4 43% 29.99 0.0
08 15:55 S 5 10.00 Fair CLR 71.6 44.6 38% 29.99 0.0
08 15:35 Calm 10.00 Fair CLR 69.8 44.6 40% 29.99 0.0
08 15:15 Calm 10.00 Fair CLR 69.8 44.6 40% 30.01 0.0
08 14:55 Calm 10.00 Fair CLR 69.8 46.4 43% 30.01 0.0
08 14:35 NE 3 10.00 Fair CLR 69.8 46.4 43% 30.01 0.0
08 14:15 NE 5 10.00 Fair CLR 69.8 44.6 40% 30.02 0.0
08 13:55 Calm 10.00 Fair CLR 69.8 46.4 43% 30.03 0.0
08 13:35 E 3 10.00 Fair CLR 69.8 46.4 43% 30.04 0.0
08 13:15 NE 3 10.00 Fair CLR 68 46.4 46% 30.04 0.0
08 12:55 Calm 10.00 Fair CLR 68 44.6 43% 30.04 0.0
08 12:35 NE 7 10.00 Fair CLR 68 44.6 43% 30.05 0.0
08 12:15 N 8 10.00 Fair CLR 68 42.8 40% 30.05 0.0
08 11:55 NE 9 10.00 Fair CLR 68 42.8 40% 30.06 0.0
08 11:35 NE 6 10.00 Fair CLR 68 44.6 43% 30.07 0.0
08 11:15 N 9 10.00 Fair CLR 66.2 44.6 46% 30.06 0.0
08 10:50 NE 10 10.00 Fair CLR 64.4 44.6 49% 30.07 0.0
08 10:35 N 9 10.00 Fair CLR 64.4 46.4 52% 30.06 0.0
08 10:15 NE 15 7.00 Fair CLR 64.4 46.4 52% 30.06 0.0
08 09:55 N 8 10.00 Fair CLR 64.4 50 60% 30.05 0.0
08 09:30 N 9 10.00 Fair CLR 60.8 50 68% 30.05 0.0
08 09:15 N 8 10.00 Fair CLR 60.8 50 68% 30.04 0.0
08 08:35 NE 8 10.00 Fair CLR 59 53.6 82% 30.04 0.0
08 08:15 N 6 10.00 Fair CLR 55.4 53.6 94% 30.03 0.0
08 07:55 N 3 10.00 Fair CLR 55.4 53.6 94% 30.03 0.0
08 07:35 N 6 10.00 Fair CLR 53.6 53.6 100% 30.02 0.0
08 07:15 N 3 10.00 Fair CLR 53.6 53.6 100% 30.01 0.0
08 06:55 N 5 10.00 Fair CLR 53.6 53.6 100% 30.01 0.0
08 06:35 N 3 10.00 Fair CLR 53.6 51.8 94% 30 0.0
08 06:15 Calm 10.00 Fair CLR 53.6 51.8 94% 29.99 0.0
08 05:55 N 3 10.00 Fair CLR 53.6 53.6 100% 29.99 0.0
08 05:35 Calm 10.00 Fair CLR 53.6 53.6 100% 29.98 0.0
08 05:15 Calm 10.00 Fair CLR 53.6 53.6 100% 29.98 0.0
08 04:55 N 6 10.00 Fair CLR 53.6 53.6 100% 29.97 0.0
08 04:35 Calm 10.00 Fair CLR 53.6 53.6 100% 29.96 0.0
08 04:15 Calm 10.00 Fair CLR 53.6 51.8 94% 29.95 0.0
08 03:35 Calm 10.00 Fair CLR 53.6 53.6 100% 29.94 0.0
08 03:15 Calm 10.00 Fair CLR 53.6 53.6 100% 29.94 0.0
08 02:55 NW 3 10.00 Fair CLR 55.4 53.6 94% 29.94 0.0
08 02:35 N 3 10.00 Fair CLR 55.4 53.6 94% 29.93 0.0
08 02:15 NW 3 10.00 Fair CLR 55.4 53.6 94% 29.93 0.0
08 01:55 NW 3 10.00 Fair CLR 55.4 53.6 94% 29.93 0.0
08 01:35 N 5 10.00 Fair CLR 57.2 55.4 94% 29.92 0.0
08 01:15 N 3 10.00 Fair CLR 57.2 55.4 94% 29.92 0.0
08 00:55 N 5 10.00 Fair CLR 57.2 55.4 94% 29.91 0.0
08 00:35 N 3 10.00 Fair CLR 59 55.4 88% 29.92 0.0
08 00:15 N 5 10.00 Fair CLR 59 55.4 88% 29.91 0.0
07 23:55 N 6 10.00 Fair CLR 59 55.4 88% 29.91 0.0
07 23:35 N 9 G 17 10.00 Fair CLR 60.8 57.2 88% 29.9 0.0
07 22:55 NW 12 G 16 10.00 Fair CLR 66.2 64.4 94% 29.86 0.0
07 22:35 Calm 10.00 Fair CLR 68 68 100% 29.83 0.0
07 22:15 SW 3 10.00 Fair CLR 69.8 68 94% 29.83 0.0
07 21:55 W 3 10.00 Fair CLR 69.8 68 94% 29.82 0.0
07 21:35 W 3 10.00 Fair CLR 69.8 68 94% 29.81 0.0
07 21:15 SW 3 10.00 Fair CLR 69.8 68 94% 29.8 0.0
07 20:55 W 3 10.00 Fair CLR 69.8 68 94% 29.79 0.0
07 20:35 Calm 10.00 Fair CLR 71.6 68 88% 29.78 0.0
07 20:15 SW 5 10.00 Fair CLR 71.6 68 88% 29.78 0.0
07 19:55 SW 7 10.00 Fair CLR 71.6 68 88% 29.77 0.0
07 19:35 SW 6 10.00 Fair CLR 73.4 68 83% 29.77 0.0
07 19:15 SW 8 10.00 Fair CLR 73.4 68 83% 29.76 0.0
07 18:55 SW 7 10.00 Fair CLR 73.4 68 83% 29.77 0.0
07 18:35 SW 8 10.00 Fair CLR 75.2 68 78% 76 29.77 0.0
07 18:15 SW 5 10.00 Fair CLR 73.4 68 83% 29.77 0.0
07 17:55 W 8 10.00 Fair CLR 75.2 68 78% 76 29.78 0.0
07 17:35 SW 7 G 16 10.00 Fair CLR 73.4 68 83% 29.78 0.0
07 17:15 SW 10 G 21 10.00 Fair CLR 75.2 68 78% 76 29.77 0.0
07 16:55 W 14 G 17 10.00 Fair CLR 75.2 69.8 83% 75 29.77 0.0
07 16:35 SW 8 10.00 Fair CLR 73.4 69.8 89% 29.76 0.0
07 16:15 SW 10 G 17 10.00 Fair CLR 71.6 69.8 94% 29.76 0.0
07 15:35 S 8 10.00 Light Rain SCT022 SCT027 SCT034 68 66.2 94% 29.77 0.0
07 15:15 S 8 10.00 Thunderstorm Light Rain SCT034 SCT043 68 66.2 94% 29.8 0.0
07 14:55 SW 6 10.00 Partly Cloudy SCT035 SCT042 68 68 100% 29.81 0.0
07 14:35 W 3 10.00 Light Rain SCT019 SCT027 SCT042 68 66.2 94% 29.81 0.0
07 14:15 SW 5 7.00 Rain SCT016 SCT022 BKN035 66.2 64.4 94% 29.82 0.0
07 13:55 SW 5 10.00 Rain SCT031 SCT036 BKN048 68 64.4 88% 29.83 0.0
07 13:15 SW 8 10.00 Light Rain CLR 71.6 64.4 78% 29.84 0.0
07 12:55 SW 6 10.00 Fair CLR 71.6 64.4 78% 29.85 0.0
07 12:35 W 3 10.00 Fair CLR 71.6 68 88% 29.85 0.0
07 11:55 W 5 10.00 Fair CLR 71.6 66.2 83% 29.86 0.0
07 11:35 S 6 10.00 Fair CLR 71.6 68 88% 29.82 0.0
07 11:15 S 5 10.00 Partly Cloudy SCT033 SCT043 69.8 68 94% 29.84 0.0
07 10:55 SW 3 10.00 Light Rain SCT024 SCT033 SCT043 69.8 66.2 88% 29.86 0.0
07 10:35 SW 6 10.00 Fair CLR 71.6 66.2 83% 29.86 0.0
07 10:15 SW 6 10.00 Fair CLR 71.6 66.2 83% 29.86 0.0
07 09:55 SW 6 10.00 Fair CLR 71.6 68 88% 29.85 0.0
07 09:35 S 5 10.00 Fair CLR 69.8 68 94% 29.84 0.0
07 09:15 S 5 10.00 Fair CLR 69.8 68 94% 29.84 0.0
07 08:55 SE 6 10.00 Fair CLR 69.8 68 94% 29.84 0.0
Date Time (edt) Wind (mph) Vis. (mi.) Weather Sky Cond. Air Dwpt Max. Min. Relative Humidity Wind Chill (°F) Heat Index (°F) altimeter (in) sea level (mb) 1 hr 3 hr 6 hr
6 hour
Temperature (ºF) Pressure Precipitation (in)